.
WxDataArchive / Data Records for 2007-02-27
2007-02-26 February 2007 2007-02-28

Data Records for Tuesday, 27 February 2007

Time	Temp	Chill	HIndex	Humid	Dewpt	 Wind 	HiWind	WindDir	Rain 	Barom 
-----	----	-----	------	-----	-----	------	------	-------	-----	----- 
00:00	30.1	30.1	30.1	79	24.4	1	4	248	0.00	29.850 
00:05	30.1	30.1	30.1	79	24.4	2	5	248	0.00	29.851 
00:10	30.1	30.1	30.1	79	24.4	2	5	248	0.00	29.852 
00:15	30.1	30.1	30.1	79	24.4	2	5	248	0.00	29.856 
00:20	30.1	30.1	30.1	79	24.4	1	7	270	0.00	29.856 
00:25	30.1	30.1	30.1	79	24.4	1	3	248	0.00	29.856 
00:30	30.0	30.0	30.0	79	24.3	1	3	248	0.00	29.856 
00:35	30.0	30.0	30.0	79	24.3	1	4	248	0.00	29.857 
00:40	30.0	30.0	30.0	79	24.3	2	5	248	0.00	29.858 
00:45	30.0	30.0	30.0	79	24.3	1	3	248	0.00	29.858 
00:50	30.0	30.0	30.0	79	24.3	2	5	248	0.00	29.858 
00:55	30.0	30.0	30.0	79	24.3	1	5	248	0.00	29.860 
01:00	30.0	30.0	30.0	80	24.6	1	3	248	0.00	29.862 
01:05	30.0	30.0	30.0	80	24.6	2	6	248	0.00	29.862 
01:10	30.0	30.0	30.0	80	24.6	1	4	248	0.00	29.860 
01:15	30.0	30.0	30.0	80	24.6	1	4	248	0.00	29.859 
01:20	29.8	29.8	29.8	79	24.1	2	6	248	0.00	29.859 
01:25	29.8	29.8	29.8	80	24.4	1	4	248	0.00	29.860 
01:30	29.8	29.8	29.8	80	24.4	1	3	248	0.00	29.860 
01:35	29.8	29.8	29.8	80	24.4	0	2	248	0.00	29.863 
01:40	29.8	29.8	29.8	80	24.4	1	5	248	0.00	29.867 
01:45	29.8	29.8	29.8	80	24.4	2	4	248	0.00	29.868 
01:50	29.8	29.8	29.8	80	24.4	1	4	248	0.00	29.869 
01:55	29.8	29.8	29.8	80	24.4	2	4	248	0.00	29.870 
02:00	29.8	29.8	29.8	80	24.4	1	4	270	0.00	29.872 
02:05	29.8	29.8	29.8	80	24.4	1	2	225	0.00	29.872 
02:10	29.8	29.8	29.8	80	24.4	0	2	225	0.00	29.872 
02:15	29.8	29.8	29.8	80	24.4	1	4	270	0.00	29.872 
02:20	29.8	29.8	29.8	79	24.1	2	6	248	0.00	29.871 
02:25	29.8	29.8	29.8	80	24.4	1	2	248	0.00	29.871 
02:30	29.7	29.7	29.7	80	24.3	1	3	248	0.00	29.869 
02:35	29.7	29.7	29.7	80	24.3	2	4	248	0.00	29.869 
02:40	29.7	29.7	29.7	80	24.3	1	3	248	0.00	29.868 
02:45	29.7	29.7	29.7	80	24.3	1	3	248	0.00	29.867 
02:50	29.7	29.7	29.7	80	24.3	2	7	270	0.00	29.870 
02:55	29.7	29.7	29.7	80	24.3	2	3	248	0.00	29.872 
03:00	29.7	29.7	29.7	80	24.3	2	3	270	0.00	29.871 
03:05	29.8	29.8	29.8	80	24.4	1	6	248	0.00	29.871 
03:10	29.8	29.8	29.8	80	24.4	1	3	270	0.00	29.870 
03:15	29.8	29.8	29.8	79	24.1	2	5	248	0.00	29.870 
03:20	29.8	29.8	29.8	80	24.4	1	3	248	0.00	29.871 
03:25	29.8	29.8	29.8	80	24.4	1	3	248	0.00	29.872 
03:30	29.8	29.8	29.8	80	24.4	1	4	248	0.00	29.872 
03:35	29.8	29.8	29.8	80	24.4	1	5	248	0.00	29.873 
03:40	29.8	29.8	29.8	80	24.4	1	4	270	0.00	29.874 
03:45	29.8	29.8	29.8	80	24.4	1	3	225	0.00	29.874 
03:50	29.7	29.7	29.7	81	24.6	0	2	248	0.00	29.874 
03:55	29.7	29.7	29.7	81	24.6	1	2	248	0.00	29.875 
04:00	29.7	29.7	29.7	81	24.6	1	3	248	0.00	29.875 
04:05	29.7	29.7	29.7	81	24.6	1	2	248	0.00	29.876 
04:10	29.7	29.7	29.7	81	24.6	1	2	248	0.00	29.878 
04:15	29.7	29.7	29.7	80	24.3	1	4	248	0.00	29.881 
04:20	29.7	29.7	29.7	80	24.3	1	3	248	0.00	29.881 
04:25	29.7	29.7	29.7	81	24.6	0	2	248	0.00	29.880 
04:30	29.7	29.7	29.7	81	24.6	1	2	248	0.00	29.883 
04:35	29.7	29.7	29.7	81	24.6	1	3	248	0.00	29.886 
04:40	29.7	29.7	29.7	80	24.3	1	3	270	0.00	29.885 
04:45	29.7	29.7	29.7	80	24.3	0	2	248	0.00	29.886 
04:50	29.7	29.7	29.7	81	24.6	1	4	248	0.00	29.886 
04:55	29.7	29.7	29.7	81	24.6	1	5	248	0.00	29.887 
05:00	29.7	29.7	29.7	81	24.6	1	2	248	0.00	29.889 
05:05	29.7	29.7	29.7	80	24.3	1	2	248	0.00	29.890 
05:10	29.7	29.7	29.7	81	24.6	1	3	248	0.00	29.893 
05:15	29.8	29.8	29.8	81	24.7	1	2	248	0.00	29.894 
05:20	29.8	29.8	29.8	81	24.7	0	2	248	0.00	29.894 
05:25	29.8	29.8	29.8	81	24.7	0	2	248	0.00	29.897 
05:30	29.7	29.7	29.7	81	24.6	0	3	248	0.00	29.899 
05:35	29.7	29.7	29.7	81	24.6	0	2	248	0.00	29.899 
05:40	29.8	29.8	29.8	81	24.7	0	3	248	0.00	29.900 
05:45	29.7	29.7	29.7	81	24.6	1	3	248	0.00	29.900 
05:50	29.7	29.7	29.7	81	24.6	1	3	248	0.00	29.902 
05:55	29.8	29.8	29.8	81	24.7	1	4	248	0.00	29.903 
06:00	29.8	29.8	29.8	81	24.7	1	4	248	0.00	29.905 
06:05	29.8	29.8	29.8	81	24.7	1	4	248	0.00	29.907 
06:10	29.8	29.8	29.8	81	24.7	1	4	248	0.00	29.908 
06:15	29.8	29.8	29.8	81	24.7	1	3	248	0.00	29.909 
06:20	29.7	29.7	29.7	81	24.6	1	3	248	0.00	29.909 
06:25	29.8	29.8	29.8	81	24.7	1	4	248	0.00	29.910 
06:30	29.7	29.7	29.7	81	24.6	1	3	225	0.00	29.912 
06:35	29.7	29.7	29.7	81	24.6	1	5	248	0.00	29.914 
06:40	29.7	29.7	29.7	81	24.6	0	2	248	0.00	29.914 
06:45	29.7	29.7	29.7	81	24.6	1	3	248	0.00	29.915 
06:50	29.7	29.7	29.7	81	24.6	0	1	248	0.00	29.916 
06:55	29.7	29.7	29.7	81	24.6	1	3	248	0.00	29.917 
07:00	29.7	29.7	29.7	81	24.6	1	3	248	0.00	29.920 
07:05	29.7	29.7	29.7	81	24.6	1	2	248	0.00	29.921 
07:10	29.7	29.7	29.7	81	24.6	1	3	248	0.00	29.922 
07:15	29.7	29.7	29.7	81	24.6	1	3	248	0.00	29.922 
07:20	29.7	29.7	29.7	81	24.6	1	3	248	0.00	29.922 
07:25	29.7	29.7	29.7	81	24.6	0	1	248	0.00	29.923 
07:30	29.7	29.7	29.7	81	24.6	0	3	248	0.00	29.923 
07:35	29.7	29.7	29.7	81	24.6	0	4	248	0.00	29.925 
07:40	29.7	29.7	29.7	81	24.6	1	3	248	0.00	29.928 
07:45	29.7	29.7	29.7	81	24.6	1	3	248	0.00	29.931 
07:50	29.7	29.7	29.7	81	24.6	0	1	248	0.00	29.932 
07:55	29.8	29.8	29.8	81	24.7	1	2	248	0.00	29.936 
08:00	29.8	29.8	29.8	81	24.7	1	3	248	0.00	29.937 
08:05	29.8	29.8	29.8	81	24.7	1	3	248	0.00	29.938 
08:10	29.8	29.8	29.8	80	24.4	2	6	248	0.00	29.939 
08:15	30.0	30.0	30.0	80	24.6	2	4	248	0.00	29.941 
08:20	30.0	30.0	30.0	80	24.6	1	5	248	0.00	29.942 
08:25	30.0	30.0	30.0	80	24.6	1	2	248	0.00	29.948 
08:30	30.1	30.1	30.1	80	24.7	1	3	248	0.00	29.951 
08:35	30.1	30.1	30.1	80	24.7	1	2	248	0.00	29.952 
08:40	30.1	30.1	30.1	79	24.4	0	2	248	0.00	29.952 
08:45	30.3	30.3	30.3	79	24.6	1	3	248	0.00	29.954 
08:50	30.3	30.3	30.3	79	24.6	0	1	248	0.00	29.954 
08:55	30.4	30.4	30.4	79	24.7	1	5	248	0.00	29.954 
09:00	30.4	30.4	30.4	79	24.7	1	6	248	0.00	29.956 
09:05	30.4	30.4	30.4	79	24.7	1	3	270	0.00	29.956 
09:10	30.4	30.4	30.4	78	24.4	2	6	248	0.00	29.955 
09:15	30.4	30.4	30.4	79	24.7	2	5	248	0.00	29.958 
09:20	30.6	30.6	30.6	78	24.6	1	4	248	0.00	29.958 
09:25	30.6	30.6	30.6	79	24.9	1	4	248	0.00	29.962 
09:30	30.7	30.7	30.7	78	24.7	2	6	248	0.00	29.963 
09:35	30.7	30.7	30.7	78	24.7	1	4	270	0.00	29.963 
09:40	30.7	30.7	30.7	78	24.7	1	6	248	0.00	29.964 
09:45	30.7	30.7	30.7	78	24.7	1	3	248	0.00	29.966 
09:50	30.9	30.9	30.9	78	24.9	1	5	248	0.00	29.966 
09:55	31.0	31.0	31.0	78	25.0	2	5	248	0.00	29.967 
10:00	31.0	31.0	31.0	78	25.0	1	3	248	0.00	29.967 
10:05	31.0	31.0	31.0	77	24.7	1	3	270	0.00	29.969 
10:10	31.2	31.2	31.2	78	25.2	1	3	248	0.00	29.970 
10:15	31.2	31.2	31.2	77	24.8	1	5	248	0.00	29.971 
10:20	31.2	31.2	31.2	77	24.8	1	3	248	0.00	29.972 
10:25	31.2	31.2	31.2	77	24.8	2	4	248	0.00	29.973 
10:30	31.3	31.3	31.3	78	25.3	0	2	248	0.00	29.976 
10:35	31.3	31.3	31.3	77	24.9	1	3	248	0.00	29.976 
10:40	31.5	31.5	31.5	77	25.1	1	2	248	0.00	29.977 
10:45	31.5	31.5	31.5	78	25.4	2	4	248	0.00	29.977 
10:50	31.5	31.5	31.5	77	25.1	1	2	248	0.00	29.978 
10:55	31.6	31.6	31.6	77	25.2	1	4	248	0.00	29.979 
11:00	31.8	31.8	31.8	77	25.4	1	2	248	0.00	29.981 
11:05	31.8	31.8	31.8	77	25.4	2	5	248	0.00	29.981 
11:10	31.8	31.8	31.8	77	25.4	2	3	270	0.00	29.983 
11:15	31.9	31.9	31.9	77	25.5	2	6	248	0.00	29.982 
11:20	32.1	32.1	32.1	77	25.7	2	4	248	0.00	29.982 
11:25	32.2	32.2	32.2	77	25.8	2	5	270	0.00	29.984 
11:30	32.4	32.4	32.4	77	26.0	1	3	248	0.00	29.984 
11:35	32.5	32.5	32.5	76	25.8	2	6	248	0.00	29.984 
11:40	32.8	32.8	32.8	76	26.1	2	6	248	0.00	29.985 
11:45	33.1	33.1	33.1	76	26.4	1	3	248	0.00	29.985 
11:50	33.4	33.4	33.4	74	26.0	2	5	248	0.00	29.985 
11:55	33.4	33.4	33.4	74	26.0	1	4	270	0.00	29.986 
12:00	33.2	33.2	33.2	74	25.8	1	5	248	0.00	29.987 
12:05	33.4	33.4	33.4	74	26.0	2	4	248	0.00	29.989 
12:10	33.2	33.2	33.2	74	25.8	3	6	248	0.00	29.988 
12:15	33.2	33.2	33.2	75	26.2	2	4	248	0.00	29.989 
12:20	33.4	33.4	33.4	75	26.3	1	4	292	0.00	29.992 
12:25	33.5	33.5	33.5	74	26.1	2	5	248	0.00	29.993 
12:30	33.5	33.5	33.5	74	26.1	2	5	248	0.00	29.996 
12:35	33.4	33.4	33.4	74	26.0	2	5	292	0.00	29.999 
12:40	33.4	33.4	33.4	74	26.0	2	6	248	0.00	29.999 
12:45	33.4	33.4	33.4	74	26.0	3	7	248	0.00	29.999 
12:50	33.2	33.2	33.2	74	25.8	2	6	270	0.00	30.000 
12:55	33.2	33.2	33.2	75	26.2	2	6	248	0.00	30.001 
13:00	33.2	33.2	33.2	74	25.8	2	5	248	0.00	30.000 
13:05	33.4	33.4	33.4	73	25.7	2	6	248	0.00	30.001 
13:10	33.5	33.5	33.5	73	25.8	2	5	270	0.00	30.001 
13:15	33.5	33.5	33.5	73	25.8	2	6	248	0.00	30.002 
13:20	33.8	33.8	33.8	73	26.1	1	3	248	0.00	30.003 
13:25	34.0	34.0	34.0	71	25.6	2	6	270	0.00	30.004 
13:30	34.1	34.1	34.1	71	25.7	2	5	248	0.00	30.007 
13:35	34.3	34.3	34.3	71	25.9	2	6	248	0.00	30.006 
13:40	34.4	34.4	34.4	71	26.0	1	3	248	0.00	30.006 
13:45	34.6	34.6	34.6	70	25.8	2	4	270	0.00	30.008 
13:50	34.4	34.4	34.4	71	26.0	1	4	292	0.00	30.009 
13:55	34.3	34.3	34.3	70	25.5	2	6	248	0.00	30.011 
14:00	34.1	34.1	34.1	71	25.7	1	6	292	0.00	30.013 
14:05	34.1	34.1	34.1	70	25.4	2	7	248	0.00	30.013 
14:10	34.3	34.3	34.3	71	25.9	2	4	248	0.00	30.013 
14:15	34.3	34.3	34.3	70	25.5	2	7	248	0.00	30.014 
14:20	34.3	34.3	34.3	72	26.2	3	10	248	0.00	30.015 
14:25	34.3	34.3	34.3	71	25.9	2	7	248	0.00	30.016 
14:30	34.1	34.1	34.1	71	25.7	3	6	270	0.00	30.019 
14:35	34.0	34.0	34.0	72	25.9	2	6	248	0.00	30.019 
14:40	34.0	34.0	34.0	72	25.9	3	9	248	0.00	30.020 
14:45	34.1	34.1	34.1	72	26.0	2	5	248	0.00	30.023 
14:50	34.1	34.1	34.1	71	25.7	2	6	270	0.00	30.027 
14:55	34.1	34.1	34.1	71	25.7	3	9	248	0.00	30.026 
15:00	34.1	34.1	34.1	72	26.0	1	3	225	0.00	30.027 
15:05	34.4	34.4	34.4	73	26.7	1	3	270	0.00	30.026 
15:10	34.1	34.1	34.1	71	25.7	2	6	248	0.00	30.028 
15:15	34.0	34.0	34.0	72	25.9	2	7	248	0.00	30.028 
15:20	33.8	33.8	33.8	72	25.7	2	4	248	0.00	30.029 
15:25	33.8	33.8	33.8	72	25.7	2	4	248	0.00	30.029 
15:30	33.8	33.8	33.8	72	25.7	3	6	248	0.00	30.030 
15:35	33.7	33.7	33.7	73	26.0	2	6	270	0.00	30.030 
15:40	33.8	33.8	33.8	72	25.7	2	6	270	0.00	30.030 
15:45	33.8	33.8	33.8	73	26.1	2	6	248	0.00	30.030 
15:50	34.0	34.0	34.0	73	26.3	1	3	270	0.00	30.030 
15:55	33.8	33.8	33.8	73	26.1	2	5	248	0.00	30.029 
16:00	33.8	33.8	33.8	73	26.1	2	6	248	0.00	30.031 
16:05	33.8	33.8	33.8	72	25.7	2	5	248	0.00	30.032 
16:10	33.8	33.8	33.8	73	26.1	2	4	248	0.00	30.033 
16:15	33.7	33.7	33.7	73	26.0	2	5	248	0.00	30.035 
16:20	33.5	33.5	33.5	73	25.8	2	5	248	0.00	30.037 
16:25	33.5	33.5	33.5	73	25.8	1	4	248	0.00	30.039 
16:30	33.5	33.5	33.5	74	26.1	1	3	248	0.00	30.045 
16:35	33.5	33.5	33.5	73	25.8	1	4	248	0.00	30.044 
16:40	33.4	33.4	33.4	73	25.7	1	5	248	0.00	30.044 
16:45	33.4	33.4	33.4	74	26.0	2	4	248	0.00	30.048 
16:50	33.2	33.2	33.2	73	25.5	1	5	270	0.00	30.049 
16:55	33.2	33.2	33.2	75	26.2	1	3	248	0.00	30.049 
17:00	33.2	33.2	33.2	74	25.8	1	5	248	0.00	30.050 
17:05	33.2	33.2	33.2	74	25.8	2	4	248	0.00	30.050 
17:10	33.2	33.2	33.2	75	26.2	2	4	248	0.00	30.054 
17:15	33.2	33.2	33.2	75	26.2	1	2	248	0.00	30.060 
17:20	33.2	33.2	33.2	75	26.2	1	2	248	0.00	30.060 
17:25	33.2	33.2	33.2	74	25.8	1	2	248	0.00	30.061 
17:30	33.1	33.1	33.1	75	26.1	1	4	270	0.00	30.065 
17:35	33.1	33.1	33.1	75	26.1	1	2	270	0.00	30.070 
17:40	33.1	33.1	33.1	75	26.1	0	3	270	0.00	30.073 
17:45	33.1	33.1	33.1	75	26.1	0	1	248	0.00	30.074 
17:50	33.1	33.1	33.1	76	26.4	1	3	248	0.00	30.074 
17:55	32.9	32.9	32.9	76	26.2	1	4	248	0.00	30.075 
18:00	32.9	32.9	32.9	76	26.2	0	1	248	0.00	30.076 
18:05	32.8	32.8	32.8	76	26.1	1	4	248	0.00	30.078 
18:10	32.8	32.8	32.8	76	26.1	1	3	248	0.00	30.080 
18:15	32.8	32.8	32.8	76	26.1	1	4	248	0.00	30.083 
18:20	32.8	32.8	32.8	77	26.4	1	3	225	0.00	30.088 
18:25	32.7	32.7	32.7	77	26.3	1	4	270	0.00	30.093 
18:30	32.7	32.7	32.7	77	26.3	1	2	248	0.00	30.094 
18:35	32.7	32.7	32.7	77	26.3	2	5	248	0.00	30.094 
18:40	32.7	32.7	32.7	76	26.0	2	5	248	0.00	30.094 
18:45	32.7	32.7	32.7	77	26.3	1	5	248	0.00	30.094 
18:50	32.5	32.5	32.5	77	26.1	2	6	248	0.00	30.095 
18:55	32.5	32.5	32.5	77	26.1	2	5	248	0.00	30.095 
19:00	32.5	32.5	32.5	77	26.1	1	7	248	0.00	30.099 
19:05	32.5	32.5	32.5	77	26.1	1	5	270	0.00	30.100 
19:10	32.4	32.4	32.4	77	26.0	1	3	248	0.00	30.098 
19:15	32.4	32.4	32.4	77	26.0	1	4	248	0.00	30.100 
19:20	32.4	32.4	32.4	77	26.0	1	4	248	0.00	30.102 
19:25	32.4	32.4	32.4	77	26.0	1	5	248	0.00	30.103 
19:30	32.4	32.4	32.4	77	26.0	0	2	248	0.00	30.106 
19:35	32.4	32.4	32.4	77	26.0	0	2	248	0.00	30.107 
19:40	32.4	32.4	32.4	77	26.0	1	3	202	0.00	30.106 
19:45	32.4	32.4	32.4	77	26.0	1	4	248	0.00	30.108 
19:50	32.4	32.4	32.4	77	26.0	1	4	248	0.00	30.108 
19:55	32.2	32.2	32.2	78	26.1	0	2	248	0.00	30.108 
20:00	32.2	32.2	32.2	77	25.8	1	6	248	0.00	30.106 
20:05	32.2	32.2	32.2	78	26.1	2	4	248	0.00	30.104 
20:10	32.2	32.2	32.2	78	26.1	1	3	248	0.00	30.103 
20:15	32.2	32.2	32.2	78	26.1	0	2	248	0.00	30.099 
20:20	32.1	32.1	32.1	78	26.0	1	4	248	0.00	30.097 
20:25	32.1	32.1	32.1	78	26.0	1	4	248	0.00	30.098 
20:30	32.1	32.1	32.1	79	26.3	0	2	248	0.00	30.095 
20:35	32.1	32.1	32.1	79	26.3	0	2	248	0.00	30.095 
20:40	31.9	31.9	31.9	79	26.1	0	1	248	0.00	30.094 
20:45	31.9	31.9	31.9	79	26.1	0	2	248	0.00	30.094 
20:50	31.9	31.9	31.9	79	26.1	0	2	248	0.00	30.094 
20:55	31.9	31.9	31.9	79	26.1	0	1	248	0.00	30.095 
21:00	31.9	31.9	31.9	79	26.1	0	2	248	0.00	30.094 
21:05	31.9	31.9	31.9	79	26.1	0	2	248	0.00	30.095 
21:10	31.9	31.9	31.9	79	26.1	1	3	248	0.00	30.095 
21:15	31.9	31.9	31.9	79	26.1	0	2	248	0.00	30.100 
21:20	31.8	31.8	31.8	80	26.3	0	1	248	0.00	30.103 
21:25	31.8	31.8	31.8	80	26.3	0	2	248	0.00	30.103 
21:30	31.8	31.8	31.8	80	26.3	0	1	248	0.00	30.099 
21:35	31.8	31.8	31.8	80	26.3	0	1	248	0.00	30.095 
21:40	31.8	31.8	31.8	80	26.3	0	1	248	0.00	30.093 
21:45	31.8	31.8	31.8	80	26.3	0	3	248	0.00	30.095 
21:50	31.8	31.8	31.8	80	26.3	0	2	248	0.00	30.094 
21:55	31.8	31.8	31.8	81	26.6	0	3	248	0.00	30.100 
22:00	31.6	31.6	31.6	80	26.2	1	2	248	0.00	30.097 
22:05	31.6	31.6	31.6	80	26.2	0	2	248	0.00	30.093 
22:10	31.6	31.6	31.6	80	26.2	0	3	248	0.00	30.094 
22:15	31.6	31.6	31.6	80	26.2	1	2	248	0.00	30.095 
22:20	31.6	31.6	31.6	81	26.5	0	2	248	0.00	30.094 
22:25	31.6	31.6	31.6	81	26.5	0	1	248	0.00	30.095 
22:30	31.6	31.6	31.6	81	26.5	0	1	248	0.00	30.094 
22:35	31.6	31.6	31.6	81	26.5	1	3	248	0.00	30.095 
22:40	31.6	31.6	31.6	81	26.5	0	1	248	0.00	30.094 
22:45	31.6	31.6	31.6	81	26.5	0	1	248	0.00	30.094 
22:50	31.5	31.5	31.5	81	26.4	0	2	248	0.00	30.092 
22:55	31.5	31.5	31.5	81	26.4	0	2	248	0.00	30.091 
23:00	31.5	31.5	31.5	81	26.4	0	1	248	0.00	30.091 
23:05	31.5	31.5	31.5	81	26.4	0	1	248	0.00	30.090 
23:10	31.5	31.5	31.5	81	26.4	0	1	248	0.00	30.091 
23:15	31.5	31.5	31.5	81	26.4	0	1	248	0.00	30.091 
23:20	31.3	31.3	31.3	81	26.2	0	1	248	0.00	30.091 
23:25	31.3	31.3	31.3	81	26.2	0	2	248	0.00	30.091 
23:30	31.3	31.3	31.3	81	26.2	0	1	248	0.00	30.090 
23:35	31.3	31.3	31.3	81	26.2	0	1	248	0.00	30.088 
23:40	31.3	31.3	31.3	82	26.5	0	0	---	0.00	30.090 
23:45	31.2	31.2	31.2	82	26.4	0	0	---	0.00	30.091 
23:50	31.2	31.2	31.2	82	26.4	0	0	---	0.00	30.090 
23:55	31.2	31.2	31.2	83	26.6	0	0	---	0.00	30.090 

CoCoRaHS
IN-AL-39
A2 Web Hosting
Creative Commons License
GoDaddy
Look for:

loaded 2017-12-10 21:11:28 • last modified 2010-11-18 10:43:29
Privacy PolicyDisclaimer
• wx.awcolley.com is powered by PmWiki v.2002016 •
• all content (unless otherwise noted) © 2017 A W Colley